Flag for Canada Weather past 2 weeks in Brantford, Ontario, Canada

Now
27 °F

Passing clouds.


Feels Like: 21 °F
Forecast: 24 / 39 °F
Wind: 5 mph from Southwest

Location: Hamilton Airport


UV Index: 5 (Moderate)

Visibility: 15 mi


Pressure: 30.49 "Hg

Humidity: 64%

Dew point: 16 °F

Location of BrantfordLocation

Historic Weather in Brantford

°F

Brantford temperature yesterday

Maximum temperature yesterday: 37 °F (at 12:00 AM)
Minimum temperature yesterday: 23 °F (at 9:00 PM)
Average temperature yesterday: 30 °F

Past Weeks' High & Low Weather Summary

 TemperatureHumidityPressure
High72 °F (Apr 13, 4:00 PM)100% (Apr 4, 10:00 AM)30.46 "Hg (Apr 4, 10:00 AM)
Low18 °F (Apr 16, 5:00 AM)32% (Apr 9, 2:00 PM)29.30 "Hg (Apr 8, 5:00 AM)
Average41 °F72%29.90 "Hg
* Reported Apr 1 9:00 AM — Apr 16 9:00 AM, Brantford, Weather by CustomWeather, © 2014

Note: Actual official high and low records may vary slightly from our data, if they occured in-between our weather recording intervals... More about our weather records

Advertising

Historic Weather Conditions — Data for Previous 24 hours

 ConditionsComfort  
Time TempWeatherWind HumidityBarometerVisibility
9:00 AM
Apr 16
25 °FSunny.3 mph69%30.46 "Hg15 mi
8:00 AM21 °FSunny.3 mph80%30.44 "Hg15 mi
7:00 AM18 °FPassing clouds.2 mph86%30.41 "Hg15 mi
6:00 AM18 °FPassing clouds.6 mph79%30.37 "Hg15 mi
5:00 AM18 °FClear.5 mph86%30.32 "Hg15 mi
4:00 AM19 °FClear.5 mph73%30.28 "Hg15 mi
3:00 AM19 °FClear.5 mph73%30.26 "Hg15 mi
2:00 AM21 °FClear.9 mph68%30.25 "Hg15 mi
1:00 AM21 °FClear.9 mph68%30.24 "Hg15 mi
12:00 AM21 °FPassing clouds.10 mph63%30.22 "Hg15 mi
11:00 PM
Apr 15
23 °FPassing clouds.9 mph58%30.21 "Hg15 mi
10:00 PM23 °FPassing clouds.14 mph58%30.18 "Hg15 mi
9:00 PM23 °FScattered clouds.15 mph63%30.14 "Hg15 mi
7:00 PM27 °FPartly sunny.14 mph64%30.06 "Hg15 mi
6:00 PM28 °FPartly sunny.15 mph59%29.99 "Hg15 mi
5:00 PM27 °FSnow flurries. Overcast.23 mph69%29.97 "Hg10 mi
4:00 PM28 °FOvercast.17 mph64%29.93 "Hg15 mi
3:00 PM28 °FMostly cloudy.18 mph69%29.92 "Hg15 mi
2:00 PM28 °FMore clouds than sun.14 mph74%29.85 "Hg15 mi
1:00 PM28 °FMostly cloudy.15 mph69%29.84 "Hg15 mi
12:00 PM28 °FOvercast.20 mph74%29.85 "Hg15 mi
11:45 AM28 °FMore clouds than sun.17 mph74%29.81 "Hg15 mi
11:00 AM28 °FSnow flurries. Overcast.22 mph80%29.78 "Hg10 mi
10:00 AM28 °FSnow flurries. Ice fog.17 mph86%29.78 "Hg2 mi
Weather by CustomWeather, © 2014

See weather overview